Location: Poughquag
(41.6090°N, 73.6820°W)
Time: 16:33:41
(UTC-05:00)

Envisat - Pass Details

Date: 22 January 2020
Orbit: 764 x 766 km, 98.1° (Epoch: 24 February)

Event Time Altitude Azimuth Distance (km) Brightness Sun altitude
Rises 06:23:55 0° 16° (NNE) 3,241 6.2 -9.8°
Reaches altitude 10° 06:26:16 10° 19° (NNE) 2,310 5.5 -9.4°
Maximum altitude 06:31:19 64° 101° (E) 848 3.6 -8.5°
Drops below altitude 10° 06:36:19 10° 183° (S) 2,293 5.7 -7.6°
Sets 06:38:38 0° 186° (S) 3,214 6.4 -7.2°
